map of LBV home
LBV - Airport
Location
City:  Libreville, Estuaire, Gabon
Name:Léon M'Ba International Airport
ICAO:FOOL
IATA:LBV

Details
Type:Airport (Aerodrome, Airfield)
Use:Public/Civil, International (customs port of entry)
Latitude:0°27'30"N (0.458333)
Longitude:9°24'44"E (9.412222)
Elevation:39 ft (12 m)
Variation:1.94°W (WMM2015 magnetic declination)
0.13° annual change
Runways:1
Longest:9843 × 148 ft (3000 × 45 m)

Time
Time Zone:UTC+1
Local Time:

Weather
METAR:FOOL 172100Z 21006KT 6000 -RA BKN010 BKN026 27/25 Q1012 TEMPO 2000 RA
TAF:FOOL 172300Z 1800/1906 22008KT 9999 SCT011 FEW020CB BKN030 PROB30
TEMPO 1800/1805 2000 TSRA BKN006 FEW016CB OVC023
TEMPO 1815/1818 TS PROB30
TEMPO 1819/1824 3500 TSRA BKN008 FEW018CB OVC026

Related Locations
Nearby:
Farthest:CIS: 12257 mi / 19725 km
Kanton Island (Canton Island, Abariringa Island) [Canton Island Airport], P, KI

Find:

   beyond  
but within

Other Information
Maps:
NOTAMs:
Links:
Sources:

  
flag of Gabon   

Sectional Chart

Flight Planning
at skyvector.com

Satellite Image

Google Maps Satellite view

 

Copyright © 2004-2017 Karl L. Swartz. All rights reserved.
The Great Circle Mapper name and logo are trademarks of the Great Circle Mapper.
All other trademarks mentioned herein belong to their respective owners.
Please see credits for attibutions and further copyright information.

  Follow gcmap on Facebook Follow gcmap on Twitter Follow gcmap on Google+ GCmap on LinkedIn

hCard Microformat

Geo Microformat